www.pogodaiklimat.ru

Погода и климат >> Архив погоды >> Индия >> Jharsuguda


ПОГОДА в Jharsuguda

  • Прогноз погоды в Jharsuguda
  • Монитор погоды в Jharsuguda
  • Климат города

АРХИВ ПОГОДЫ в Jharsuguda

Время (UTC), дата Ветер
(напр.,м/с)
 
Видим.   Явления Облачность Т
(С)
Тd
(С)
f
(%)
Тe
(С)
Тes
(С)
Комфортность P
(гПа)
Po
(гПа)
Тmin
(С)
Tmax
(С)
R
(мм)
R24
(мм)
S
(см)
00 19.02 штиль 0 4000 м ясно +15.6 +10.7 73 +15 +15 1012.7 1013.0
03 19.02 штиль 0 4000 м ясно +19.2 +11.2 60 +20 +28 1014.5 1015.0 +14.4
06 19.02 штиль 0 4000 м ясно +30.0 +8.8 27 +29 +51 опасность
солнечного
удара
1013.7 1014.0
09 19.02 штиль 0 4000 м ясно +32.6 +8.3 22 +31 +43 жарко 1009.6 1010.0
12 19.02 Ю 1 4000 м ясно +30.0 +9.3 28 +30 +30 жарко 1009.7 1010.0 +33.4
15 19.02 штиль 0 4000 м ясно +25.0 +13.4 49 +27 +27 жарко 1011.5 1012.0
18 19.02 штиль 0 4000 м ясно +21.8 +12.3 55 +24 +24 комфорт 1011.9 1012.0
21 19.02 штиль 0 4000 м ясно +19.0 +11.8 63 +20 +20 1011.5 1012.0
00 20.02 штиль 0 4000 м ясно +17.4 +13.1 76 +17 +17 1012.4 1012.0
03 20.02 штиль 0 4000 м 8/0
[Ac trans]
+20.2 +12.4 61 +22 +26 комфорт 1014.6 1015.0 +16.0
06 20.02 С 1 4000 м 4/0
[Ac trans]
+29.4 +9.9 30 +29 +44 жарко 1013.0 1013.0
09 20.02 штиль 0 4000 м ясно +32.6 +10.0 25 +32 +44 жарко 1009.8 1010.0
12 20.02 штиль 0 4000 м ясно +31.0 +13.8 35 +32 +32 жарко 1009.6 1010.0 +33.4
15 20.02 штиль 0 4000 м ясно +25.2 +14.1 50 +28 +28 жарко 1012.0 1012.0
18 20.02 штиль 0 4000 м ясно +22.6 +12.9 54 +25 +25 комфорт 1012.1 1012.0
21 20.02 штиль 0 4000 м ясно +19.4 +12.3 63 +21 +21 комфорт 1012.1 1012.0
00 21.02 штиль 0 4000 м ясно +17.6 +13.0 74 +18 +18 1012.7 1013.0
03 21.02 штиль 0 4000 м ясно +21.0 +9.0 46 +22 +30 комфорт 1013.9 1014.0 +15.4
06 21.02 штиль 0 4000 м ясно +29.8 +9.6 28 +29 +51 опасность
солнечного
удара
1012.4 1012.0
09 21.02 штиль 0 4000 м ясно +33.0 +9.2 23 +30 +42 жарко 1008.2 1008.0
12 21.02 штиль 0 4000 м ясно +32.2 +8.7 23 +31 +31 жарко 1007.4 1007.0 +34.4
15 21.02 штиль 0 4000 м ясно +24.8 +9.0 37 +25 +25 комфорт 1010.4 1010.0
18 21.02 штиль 0 4000 м ясно +20.8 +9.2 47 +22 +22 комфорт 1011.4 1011.0
21 21.02 штиль 0 4000 м ясно +18.8 +9.8 56 +19 +19 1011.2 1011.0
00 22.02 штиль 0 4000 м ясно +15.6 +10.7 73 +15 +15 1010.9 1011.0
03 22.02 штиль 0 4000 м ясно +22.0 +8.9 43 +23 +31 комфорт 1012.7 1013.0 +14.6
06 22.02 ЮЗ 2 4000 м ясно +31.0 +5.9 21 +29 +45 жарко 1011.0 1011.0
09 22.02 ЮВ 2 4000 м ясно +34.2 +4.3 15 +31 +41 жарко 1008.0 1008.0
12 22.02 штиль 0 4000 м ясно +31.2 +6.9 22 +30 +30 жарко 1007.9 1008.0 +34.4
15 22.02 штиль 0 4000 м ясно +25.8 +10.9 39 +27 +27 жарко 1010.0 1010.0
18 22.02 штиль 0 4000 м ясно +23.0 +12.1 50 +26 +26 жарко 1010.9 1011.0
21 22.02 штиль 0 4000 м ясно +20.4 +11.8 58 +22 +22 комфорт 1010.6 1011.0
00 23.02 штиль 0 4000 м ясно +16.6 +11.9 74 +17 +17 1011.5 1012.0
03 23.02 штиль 0 4000 м ясно +22.0 +10.3 47 +24 +32 комфорт 1013.6 1014.0 +15.5
06 23.02 штиль 0 4000 м ясно +31.0 +8.3 24 +30 +52 опасность
солнечного
удара
1012.3 1012.0
09 23.02 ЮЗ 2 4000 м ясно +34.4 +4.1 15 +32 +41 жарко 1008.2 1008.0
12 23.02 Ю 1 4000 м ясно +32.0 +5.9 20 +30 +30 жарко 1008.3 1008.0 +35.2
15 23.02 штиль 0 4000 м ясно +26.2 +10.6 38 +27 +27 жарко 1010.4 1010.0
18 23.02 штиль 0 4000 м ясно +23.2 +9.1 41 +25 +25 комфорт 1011.3 1011.0
21 23.02 штиль 0 4000 м ясно +20.6 +9.4 49 +22 +22 комфорт 1010.9 1011.0
00 24.02 штиль 0 4000 м ясно +17.4 +12.0 71 +17 +17 1013.0 1013.0
03 24.02 штиль 0 4000 м ясно +23.4 +10.4 44 +25 +33 комфорт 1015.1 1015.0 +16.0
06 24.02 Ю 2 4000 м ясно +32.4 +9.0 24 +31 +48 жарко 1014.9 1015.0
09 24.02 Ю 1 4000 м ясно +35.0 +8.6 20 +33 +45 жарко 1010.4 1010.0
12 24.02 Ю 1 4000 м ясно +32.6 +10.0 25 +32 +32 жарко 1010.1 1010.0 +36.0
15 24.02 штиль 0 4000 м ясно +27.0 +12.6 41 +29 +29 жарко 1013.2 1013.0
18 24.02 штиль 0 4000 м ясно +24.0 +12.5 49 +26 +26 жарко 1014.5 1015.0
21 24.02 штиль 0 4000 м ясно +21.0 +10.4 51 +23 +23 комфорт 1013.4 1013.0
00 25.02 штиль 0 4000 м ясно +17.8 +13.0 73 +18 +18 1014.2 1014.0
03 25.02 штиль 0 4000 м ясно +23.6 +13.3 52 +26 +34 жарко 1015.5 1016.0 +17.5
06 25.02 ЮЗ 1 4000 м ясно +32.6 +9.4 24 +32 +52 опасность
солнечного
удара
1013.8 1014.0
09 25.02 ЮЗ 3 4000 м ясно +36.0 +7.5 17 +34 +43 очень
жарко
1010.1 1010.0
12 25.02 штиль 0 4000 м 4/0
[Ci fib]
+33.4 +16.8 37 +36 +36 очень
душно
1009.6 1010.0 +36.8
15 25.02 СЗ 1 4000 м 8/4 600 м
[Sc Ac trans]
+27.2 +15.0 47 +30 +30 душно 1012.4 1012.0
18 25.02 СВ 1 4000 м гроза, ливневой дождь 8/5 600 м
[Cb cap Ac trans]
+24.8 +11.4 43 +26 +26 жарко 1012.2 1012.0
21 25.02 штиль 0 4000 м {гроза, дождь} 6/0 600 м
[Ac trans]
+22.8 +10.9 47 +25 +25 комфорт 1011.7 1012.0 0.0

 

Местоположение метеостанции Jharsuguda (Orissa, Индия): широта 21.92 долгота 84.08 высота над уровнем моря 230 м.

В архиве по умолчанию представлена погода в Jharsuguda за последнюю неделю. Архивные данные за месяц целиком и за предыдущие месяцы, начиная с января 2011 года, Вы можете получить, выбрав интересующий диапазон дат из раскрывающегося списка и нажав кнопку "Ввод!".

Внимание! Время в таблицах - всемирное. Для получения местного времени необходимо прибавить поправку, которая в Jharsuguda равна 5.5 ч.

Смотрите также архив погоды в соседних городах и на ближайших метеорологических станциях:

Погода в Sundargarh (Orissa, Индия) (23 км)
Погода в Hirakud (Orissa, Индия) (50 км)
Погода в Sambalpur (Orissa, Индия) (51 км)
Погода в Keongjhargarh (Orissa, Индия) (152 км)
Погода в Angul (Orissa, Индия) (161 км)
Погода в Phulbani (Orissa, Индия) (161 км)
Погода в Ambikapur (Chhattisgarh, Индия) (163 км)
Погода в Chaibasa (Jharkhand, Индия) (192 км)
Погода в Titlagarh (Orissa, Индия) (198 км)
Погода в Bilaspur (Chhattisgarh, Индия) (198 км)

Пояснения к столбцам:

Ветер - указаны скорость ветра в м/с - средняя за 10 мин, порывы в срок и между сроками (в фигурных скобках) и направление, откуда дует ветер: С - северный, СВ - северо-восточный, В - восточный, ЮВ - юго-восточный, Ю - южный, ЮЗ - юго-западный, З - западный, СЗ - северо-западный.
Видимость - горизонтальная дальность видимости в метрах или километрах. При видимости от 1 до 10 км при отсутствии осадков обычно наблюдается дымка, при ухудшении видимости до 1 км и менее - туман. В сухую погоду видимость может ухудшаться дымом, пылью или мглою.
Явления - указаны атмосферные явления, наблюдавшиеся в срок или в последний час перед сроком; фигурными скобками обозначены явления, наблюдавшиеся между сроками (за 1-3 часа до срока); квадратными скобками обозначены град или гололедные отложения с указанием их диаметра в мм.
Облачность - указаны через наклонную черту общая и нижняя облачность в баллах и высота нижней границы облаков в метрах; квадратными скобками обозначены формы облаков: Ci - перистые, Cs - перисто-слоистые, Cc - перисто-кучевые, Ac - высококучевые, As - высокослоистые, Sc - слоисто-кучевые, Ns - слоисто-дождевые, Cu - кучевые, Cb - кучево-дождевые. Подробнее классификацию облаков см. в Атласе облаков (PDF).
T - Температура воздуха - температура, измеренная на высоте 2 м над землей.
Td - Температура точки росы - температура, при понижении до которой содержащийся в воздухе водяной пар достигнет насыщения.
f - Относительная влажность воздуха - влажноcть воздуха, измеренная на высоте 2 м над землей.
Te - Эффективная температура - температура, которую ощущает одетый по сезону человек в тени. Характеристика душности погоды. При расчете учитывается влияние влажности воздуха и скорости ветра на теплоощущения человека.
Tes - Эффективная температура на солнце - температура, которую ощущает человек, с поправкой на солнечный нагрев. Характеристика знойности погоды. Зависит от высоты солнца над горизонтом, облачности и скорости ветра. Ночью, в пасмурную погоду, а также при ветре 12 м/с и более поправка равна нулю.
P - Атмосферное давление - приведенное к уровню моря атмосферное давление.
Po - Атмосферное давление - измеренное на уровне метеостанции атмосферное давление.
Tmin - Минимальная температура - минимум температуры воздуха на высоте 2 м над землей.
Tmax - Максимальная температура - максимум температуры воздуха на высоте 2 м над землей.
R - Количество осадков - Количество выпавших осадков за период времени, мм. При наведении курсора мыши на число - период времени, за который выпало указанное количество осадков.
R24 - Количество осадков - Количество выпавших осадков за 24 часа, мм.
S - Снежный покров - Высота снежного покрова, см. При наведении курсора мыши на число - состояние снежного покрова и степень покрытия местности в баллах.